User: anonymous   Login
Location: Vale
(35.4830°N, 81.3830°W)
Time: 05:58:12
(UTC-04:00)
Language:

Oscar 11 - Orbit

View from above orbital plane
View from above orbital plane
View from above satellite
View from above satellite

Ground track
Ground track

The orbit data is extracted from the following two-line orbital elements,

1 14781U 84021B   17114.72575213 +.00000287 +00000-0 +41717-4 0  9993
2 14781 097.7034 162.3925 0008994 024.8240 335.3405 14.82884578761429
Epoch (UTC): 24 April 2017 17:25:04
Eccentricity: 0.0008994
inclination: 97.7034°
perigee height: 614 km
apogee height: 626 km
right ascension of ascending node: 162.3925°
argument of perigee: 24.8240°
revolutions per day: 14.82884578
mean anomaly at epoch: 335.3405°
orbit number at epoch: 76142

The dashed part of the orbit path shows where the satellite is in the earth's shadow,  

DLR